Погода в Джардини-Наксосе

Италия     37°49′56″N   15°16′09″E
темп.,
°C
ветер,
м/с
пор.,
м/с
влажн.,
%
обл.,
%
осадки,
мм/ч
давл.,
гПа
погр.,
м
12 апреля, пн
пн1223:00+12ююз348144 0.0 1023358
02:00+11юз238069 0.0 1023219
05:00+11ююз228283 0.0 1022256
08:00+13ююв238353 0.0 1022391
11:00+14юв3476100 0.0 1022473
14:00+13юв3378100 0.0 1021427
17:00+14вюв2177100 0.2 1020300
20:00+12ююз008892 0.2 102037
13 апреля, вт
вт1323:00+12с1185100 0.1 102046
02:00+12ссв118621 0.1 102064
05:00+12юз118215 0.0 101971
08:00+13св11710 0.0 1019136
11:00+15в326711 0.0 1019636
14:00+16всв436833 0.1 1018619
17:00+16ссв56611 0.0 1016552
20:00+13с58660 0.0 1017320
14 апреля, ср
ср1423:00+10сз35570 0.0 1018190
02:00+9сз34551 0.0 1018116
05:00+9сз235533 0.0 1018116
08:00+12зсз11530 0.0 1019213
11:00+14юв42514 0.0 1020630
14:00+15юв334812 0.0 1019635
17:00+14юв225523 0.0 1019560
20:00+11юз117033 0.0 102096
15 апреля, чт
чт1523:00+12ссв117266 0.0 1021179
02:00+10сз117729 0.0 1020141
05:00+10юз117939 0.0 1019137
08:00+11ююв127918 0.0 1020323
11:00+13юв347257 0.0 1020590
14:00+14юв347162 0.0 1019710
17:00+12ю3379100 0.1 1018416
20:00+11ююз1192100 1.4 101897
16 апреля, пт
пт1623:00+10вюв1195100 1.4 1018127
02:00+11ю139279 1.4 1017240
05:00+11в1191100 0.4 1016157
08:00+11всв2395100 1.6 1016225
11:00+12вюв469394 1.8 1015561
14:00+12вюв568583 2.5 1014906
17:00+12вюв588787 0.4 1011693
20:00+11в488995 0.7 1009663